User: anonymous   Login
Location: Goheenville
(40.9070°N, 79.3720°W)
Time: 12:08:42
(UTC-04:00)
Language:

Cosmos 1727 Rocket - Orbit

View from above orbital plane
View from above orbital plane
View from above satellite
View from above satellite

Ground track
Ground track

The orbit data is extracted from the following two-line orbital elements,

1 16511U 86008B   18173.86949444 -.00000005 +00000-0 -20494-4 0  9994
2 16511 082.9443 305.0106 0023401 329.9527 189.2423 13.75819452626983
Epoch (UTC): 22 June 2018 20:52:04
Eccentricity: 0.0023401
inclination: 82.9443°
perigee height: 961 km
apogee height: 996 km
right ascension of ascending node: 305.0106°
argument of perigee: 329.9527°
revolutions per day: 13.75819452
mean anomaly at epoch: 189.2423°
orbit number at epoch: 62698

The dashed part of the orbit path shows where the satellite is in the earth's shadow,  

DLR